Cloquet, MN

1:23 AM CDT on September 23, 2017 (GMT -0500)
Cloquet Carlton County

Weather History for KCOQ - September, 2013

Change the Weather History Date:

Thursday, September 12, 2013

  Actual Average Record
Temperature  
Mean Temperature 54 °F -  
Max Temperature 66 °F 66 °F 82 °F (2011)
Min Temperature 42 °F 47 °F 28 °F (2007)
Degree Days  
Heating Degree Days 11    
Growing Degree Days 4 (Base 50)    
Moisture  
Dew Point 45 °F    
Average Humidity 73    
Maximum Humidity 100    
Minimum Humidity 39    
Precipitation  
Precipitation 0.00 in - - ()
Sea Level Pressure  
Sea Level Pressure 30.18 in    
Wind  
Wind Speed 8 mph (NNW)    
Max Wind Speed 18 mph    
Max Gust Speed 26 mph    
Visibility 10 miles    
Events      
Averages and records for this station are not official NWS values.
T = Trace of Precipitation, MM = Missing Value Source: NWS Daily Summary

Daily Weather History Graph

Daily Weather History Graph

Search for Another Location

Airport or City:

Trip Planner

Search our weather history database for the weather conditions in past years. The results will help you decide how hot, cold, wet, or windy it might be!

Date:

Astronomy

Sep. 12, 2013 Rise Set
Actual Time 6:44 AM CDT 7:27 PM CDT
Civil Twilight 6:13 AM CDT 7:57 PM CDT
Nautical Twilight 5:37 AM CDT 8:33 PM CDT
Astronomical Twilight 4:59 AM CDT 9:11 PM CDT
Moon 2:36 PM CDT (9/12) 11:59 PM CDT (9/12)
Length of Visible Light 13h 43m
Length of Day
12h 42m
Waxing Crescent, 50% of the Moon is Illuminated
Sep 12
Waxing Crescent
Sep 12
First Quarter
Sep 19
Full
Sep 26
Last Quarter
Oct 4
New

Hourly Weather History & Observations

Time (CDT) Temp. Windchill Dew Point Humidity Pressure Visibility Wind Dir Wind Speed Gust Speed Precip Events Conditions
12:15 AM 51.8 °F - 50.0 °F 94% 30.08 in 10.0 mi WNW 6.9 mph - N/A   Clear
12:36 AM 51.8 °F - 50.0 °F 94% 30.09 in 10.0 mi NW 8.1 mph - N/A   Clear
12:56 AM 51.8 °F - 50.0 °F 94% 30.09 in 10.0 mi NW 8.1 mph - N/A   Clear
1:15 AM 51.8 °F - 50.0 °F 94% 30.09 in 10.0 mi NW 6.9 mph - N/A   Clear
1:36 AM 51.8 °F - 50.0 °F 94% 30.10 in 10.0 mi NW 8.1 mph - N/A   Clear
1:56 AM 51.8 °F - 50.0 °F 94% 30.09 in 10.0 mi NW 10.4 mph - N/A   Clear
2:15 AM 51.8 °F - 50.0 °F 94% 30.10 in 10.0 mi NW 10.4 mph - N/A   Clear
2:36 AM 51.8 °F - 50.0 °F 94% 30.09 in 10.0 mi NW 9.2 mph - N/A   Clear
2:55 AM 51.8 °F - 50.0 °F 94% 30.10 in 10.0 mi NW 10.4 mph - N/A   Clear
3:16 AM 51.8 °F - 50.0 °F 94% 30.10 in 10.0 mi NW 8.1 mph - N/A   Scattered Clouds
3:36 AM 51.8 °F - 48.2 °F 88% 30.10 in 10.0 mi NW 8.1 mph - N/A   Mostly Cloudy
3:56 AM 51.8 °F - 48.2 °F 88% 30.11 in 10.0 mi NW 5.8 mph - N/A   Scattered Clouds
4:15 AM 51.8 °F - 48.2 °F 88% 30.11 in 10.0 mi NW 4.6 mph - N/A   Clear
4:36 AM 50.0 °F - 48.2 °F 94% 30.11 in 10.0 mi West 4.6 mph - N/A   Clear
4:56 AM 48.2 °F - 46.4 °F 93% 30.12 in 10.0 mi West 5.8 mph - N/A   Clear
5:16 AM 48.2 °F - 46.4 °F 93% 30.12 in 10.0 mi NW 4.6 mph - N/A   Scattered Clouds
5:35 AM 48.2 °F - 46.4 °F 93% 30.13 in 10.0 mi NW 3.5 mph - N/A   Scattered Clouds
5:56 AM 48.2 °F - 48.2 °F 100% 30.14 in 10.0 mi Calm Calm - N/A   Overcast
6:16 AM 51.8 °F - 48.2 °F 88% 30.14 in 10.0 mi NW 4.6 mph - N/A   Overcast
6:35 AM 51.8 °F - 50.0 °F 94% 30.14 in 10.0 mi NNW 8.1 mph - N/A   Overcast
6:56 AM 51.8 °F - 50.0 °F 94% 30.15 in 10.0 mi NNW 5.8 mph - N/A   Overcast
7:15 AM 51.8 °F - 48.2 °F 88% 30.16 in 10.0 mi NNW 4.6 mph - N/A   Overcast
7:36 AM 51.8 °F - 50.0 °F 94% 30.17 in 10.0 mi NNW 6.9 mph - N/A   Overcast
7:55 AM 51.8 °F - 50.0 °F 94% 30.17 in 7.0 mi NW 6.9 mph - N/A   Overcast
8:16 AM 51.8 °F - 51.8 °F 100% 30.17 in 10.0 mi North 8.1 mph - N/A   Overcast
8:36 AM 51.8 °F - 50.0 °F 94% 30.17 in 10.0 mi NNW 6.9 mph - N/A   Overcast
8:55 AM 51.8 °F - 50.0 °F 94% 30.19 in 10.0 mi NNW 8.1 mph - N/A   Overcast
9:16 AM 53.6 °F - 50.0 °F 88% 30.19 in 10.0 mi NW 5.8 mph - N/A   Overcast
9:36 AM 53.6 °F - 50.0 °F 88% 30.19 in 10.0 mi WNW 4.6 mph - N/A   Mostly Cloudy
9:56 AM 55.4 °F - 50.0 °F 82% 30.19 in 10.0 mi NNW 6.9 mph - N/A   Mostly Cloudy
10:15 AM 57.2 °F - 50.0 °F 77% 30.20 in 10.0 mi NNW 8.1 mph 17.3 mph N/A   Mostly Cloudy
10:36 AM 57.2 °F - 48.2 °F 72% 30.20 in 10.0 mi NNW 10.4 mph 16.1 mph N/A   Mostly Cloudy
10:56 AM 60.8 °F - 46.4 °F 59% 30.20 in 10.0 mi NNW 11.5 mph 18.4 mph N/A   Scattered Clouds
11:15 AM 60.8 °F - 46.4 °F 59% 30.20 in 10.0 mi NNW 13.8 mph 19.6 mph N/A   Scattered Clouds
11:36 AM 60.8 °F - 46.4 °F 59% 30.21 in 10.0 mi NNW 12.7 mph 20.7 mph N/A   Mostly Cloudy
11:56 AM 62.6 °F - 46.4 °F 55% 30.21 in 10.0 mi NNW 13.8 mph 21.9 mph N/A   Mostly Cloudy
12:15 PM 62.6 °F - 44.6 °F 52% 30.21 in 10.0 mi WNW 11.5 mph 21.9 mph N/A   Mostly Cloudy
12:36 PM 62.6 °F - 44.6 °F 52% 30.21 in 10.0 mi NNW 16.1 mph 23.0 mph N/A   Mostly Cloudy
12:56 PM 60.8 °F - 44.6 °F 55% 30.21 in 10.0 mi NW 15.0 mph 23.0 mph N/A   Overcast
1:15 PM 62.6 °F - 44.6 °F 52% 30.21 in 10.0 mi NNW 12.7 mph 20.7 mph N/A   Overcast
1:36 PM 62.6 °F - 44.6 °F 52% 30.21 in 10.0 mi NNW 16.1 mph 21.9 mph N/A   Mostly Cloudy
1:56 PM 62.6 °F - 44.6 °F 52% 30.20 in 10.0 mi NW 15.0 mph 18.4 mph N/A   Scattered Clouds
2:15 PM 64.4 °F - 44.6 °F 49% 30.20 in 10.0 mi NW 15.0 mph 21.9 mph N/A   Scattered Clouds
2:36 PM 64.4 °F - 42.8 °F 45% 30.20 in 10.0 mi NNW 17.3 mph 24.2 mph N/A   Scattered Clouds
2:56 PM 64.4 °F - 42.8 °F 45% 30.19 in 10.0 mi NNW 16.1 mph 21.9 mph N/A   Clear
3:15 PM 64.4 °F - 42.8 °F 45% 30.19 in 10.0 mi NW 18.4 mph 25.3 mph N/A   Scattered Clouds
3:36 PM 64.4 °F - 41.0 °F 42% 30.19 in 10.0 mi NW 13.8 mph 20.7 mph N/A   Clear
3:55 PM 66.2 °F - 42.8 °F 43% 30.19 in 10.0 mi NW 15.0 mph 20.7 mph N/A   Scattered Clouds
4:16 PM 64.4 °F - 41.0 °F 42% 30.19 in 10.0 mi NNW 15.0 mph 26.5 mph N/A   Scattered Clouds
4:36 PM 64.4 °F - 41.0 °F 42% 30.19 in 10.0 mi NW 12.7 mph 23.0 mph N/A   Clear
4:56 PM 64.4 °F - 39.2 °F 40% 30.19 in 10.0 mi NNW 18.4 mph 23.0 mph N/A   Clear
5:15 PM 64.4 °F - 39.2 °F 40% 30.19 in 10.0 mi NNW 9.2 mph 21.9 mph N/A   Clear
5:36 PM 62.6 °F - 37.4 °F 39% 30.20 in 10.0 mi NNW 18.4 mph 24.2 mph N/A   Clear
5:56 PM 62.6 °F - 39.2 °F 42% 30.20 in 10.0 mi NNW 13.8 mph 21.9 mph N/A   Clear
6:15 PM 62.6 °F - 39.2 °F 42% 30.20 in 10.0 mi NNW 13.8 mph 19.6 mph N/A   Clear
6:36 PM 60.8 °F - 39.2 °F 45% 30.21 in 10.0 mi NNW 9.2 mph - N/A   Clear
6:56 PM 59.0 °F - 42.8 °F 55% 30.21 in 10.0 mi North 5.8 mph - N/A   Clear
7:15 PM 57.2 °F - 42.8 °F 59% 30.21 in 10.0 mi NNE 3.5 mph - N/A   Clear
7:36 PM 57.2 °F - 41.0 °F 55% 30.22 in 10.0 mi Calm Calm - N/A   Clear
7:56 PM 55.4 °F - 42.8 °F 63% 30.22 in 10.0 mi Calm Calm - N/A   Clear
8:15 PM 53.6 °F - 42.8 °F 67% 30.23 in 10.0 mi NNE 3.5 mph - N/A   Clear
8:36 PM 51.8 °F - 42.8 °F 71% 30.23 in 10.0 mi North 3.5 mph - N/A   Clear
8:56 PM 51.8 °F - 42.8 °F 71% 30.24 in 10.0 mi Calm Calm - N/A   Clear
9:15 PM 51.8 °F - 42.8 °F 71% 30.24 in 10.0 mi NNE 4.6 mph - N/A   Clear
9:36 PM 51.8 °F - 41.0 °F 67% 30.24 in 10.0 mi NNE 4.6 mph - N/A   Clear
9:56 PM 48.2 °F - 41.0 °F 76% 30.25 in 10.0 mi NNE 4.6 mph - N/A   Clear
10:15 PM 44.6 °F - 41.0 °F 87% 30.25 in 10.0 mi Calm Calm - N/A   Clear
10:36 PM 44.6 °F 43.1 °F 41.0 °F 87% 30.25 in 10.0 mi NNW 3.5 mph - N/A   Clear
10:55 PM 42.8 °F - 41.0 °F 93% 30.25 in 10.0 mi Calm Calm - N/A   Clear
11:16 PM 42.8 °F 41.1 °F 41.0 °F 93% 30.25 in 10.0 mi NW 3.5 mph - N/A   Clear
11:36 PM 42.8 °F - 39.2 °F 87% 30.25 in 10.0 mi Calm Calm - N/A   Clear
11:56 PM 42.8 °F - 39.2 °F 87% 30.25 in 10.0 mi Calm Calm - N/A   Clear